CW7580 Weather Reports


time (UTC)temp
C
wind
direction
speed
KPH
gust
KPH
rain 1hr
cm
rain 24hr
cm
rain mn
cm
humidity
%
barometer
mb
20260505004539 21 188 3.2 17.7 0.00 0.00 0.00 64 1011.4
20260505004058 21 180 4.8 17.7 0.00 0.00 0.00 63 1011.5
20260505004051 22 181 4.8 17.7 0.00 0.00 0.00 63 1011.6
20260505003542 21 180 6.4 16.1 0.00 0.00 0.00 62 1011.8
20260505003056 22 184 4.8 16.1 0.00 0.00 0.00 62 1011.7
20260505003053 22 184 6.4 16.1 0.00 0.00 0.00 62 1011.7
20260505002533 22 171 3.2 16.1 0.00 0.00 0.00 61 1011.5
20260505002108 22 188 6.4 17.7 0.00 0.00 0.00 60 1011.7
20260505001541 22 200 8.0 17.7 0.00 0.00 0.00 59 1011.7
20260505001044 22 179 9.7 17.7 0.00 0.00 0.00 58 1011.8
20260505001041 23 184 11.3 17.7 0.00 0.00 0.00 58 1011.8
20260505000602 23 173 8.0 22.5 0.00 0.00 0.00 57 1011.8
20260505000116 23 163 11.3 22.5 0.00 0.00 0.00 55 1011.9
20260505000112 23 178 8.0 22.5 0.00 0.00 0.00 55 1011.9
20260504235528 23 184 6.4 20.9 0.00 0.00 0.00 54 1011.8
20260504235055 23 185 9.7 20.9 0.00 0.00 0.00 53 1011.8
20260504235051 23 178 11.3 20.9 0.00 0.00 0.00 53 1011.8
20260504234545 23 182 9.7 17.7 0.00 0.00 0.00 52 1011.8
20260504234056 23 161 1.6 14.5 0.00 0.00 0.00 52 1011.8
20260504233528 23 184 6.4 19.3 0.00 0.00 0.00 50 1011.8
20260504233041 23 180 8.0 19.3 0.00 0.00 0.00 49 1011.9
20260504233037 23 180 9.7 19.3 0.00 0.00 0.00 49 1011.9
20260504232533 23 200 9.7 19.3 0.00 0.00 0.00 49 1012.0
20260504232053 24 182 4.8 19.3 0.00 0.00 0.00 49 1012.0
20260504232050 24 185 4.8 19.3 0.00 0.00 0.00 49 1012.0
20260504231526 24 191 8.0 14.5 0.00 0.00 0.00 49 1012.0
20260504231041 24 184 1.6 12.9 0.00 0.00 0.00 49 1012.0
20260504231038 25 184 1.6 17.7 0.00 0.00 0.00 49 1012.0
20260504230559 24 184 4.8 17.7 0.00 0.00 0.00 48 1012.1
20260504230114 25 190 9.7 19.3 0.00 0.00 0.00 48 1012.1
20260504230110 25 184 11.3 19.3 0.00 0.00 0.00 48 1012.1
20260504225545 25 184 8.0 19.3 0.00 0.00 0.00 48 1012.1
20260504225114 25 207 9.7 17.7 0.00 0.00 0.00 48 1012.1
20260504224632 25 142 0.0 17.7 0.00 0.00 0.00 47 1012.1
20260504224057 25 160 1.6 9.7 0.00 0.00 0.00 47 1012.2
20260504224020 25 160 1.6 9.7 0.00 0.00 0.00 46 1012.2
20260504223534 25 157 0.0 11.3 0.00 0.00 0.00 47 1012.2
20260504223054 25 157 3.2 14.5 0.00 0.00 0.00 46 1012.3
20260504223050 25 157 3.2 14.5 0.00 0.00 0.00 46 1012.3
20260504222632 25 188 3.2 14.5 0.00 0.00 0.00 46 1012.4
20260504222145 25 190 4.8 16.1 0.00 0.00 0.00 47 1012.3
20260504222052 25 188 3.2 16.1 0.00 0.00 0.00 46 1012.3
20260504221530 25 202 9.7 16.1 0.00 0.00 0.00 46 1012.4
20260504221044 25 157 1.6 12.9 0.00 0.00 0.00 48 1012.3
20260504221040 25 148 1.6 12.9 0.00 0.00 0.00 46 1012.3
20260504220553 25 175 0.0 16.1 0.00 0.00 0.00 46 1012.4
20260504220112 25 190 6.4 17.7 0.00 0.00 0.00 46 1012.7
20260504220108 26 180 6.4 17.7 0.00 0.00 0.00 46 1012.7
20260504215528 25 184 9.7 17.7 0.00 0.00 0.00 47 1012.5
20260504215046 25 186 1.6 17.7 0.00 0.00 0.00 49 1012.6
20260504215041 26 191 1.6 17.7 0.00 0.00 0.00 49 1012.6
20260504214542 25 176 1.6 17.7 0.00 0.00 0.00 47 1012.6
20260504214054 25 154 1.6 16.1 0.00 0.00 0.00 48 1012.6
20260504214050 26 151 1.6 16.1 0.00 0.00 0.00 49 1012.6
20260504213539 25 163 6.4 16.1 0.00 0.00 0.00 47 1012.6
20260504213058 25 184 1.6 22.5 0.00 0.00 0.00 47 1012.6
20260504213053 25 184 1.6 22.5 0.00 0.00 0.00 47 1012.6
20260504212626 25 173 3.2 22.5 0.00 0.00 0.00 48 1012.6
20260504212055 26 176 11.3 17.7 0.00 0.00 0.00 48 1012.6
20260504212003 26 177 4.8 16.1 0.00 0.00 0.00 49 1012.6
20260504211528 25 186 3.2 16.1 0.00 0.00 0.00 49 1012.9
20260504211043 25 185 4.8 16.1 0.00 0.00 0.00 50 1012.8
20260504211037 25 186 6.4 16.1 0.00 0.00 0.00 50 1012.8
20260504210559 25 192 6.4 22.5 0.00 0.00 0.00 49 1012.9
20260504210109 25 180 9.7 22.5 0.00 0.00 0.00 50 1012.9
20260504210105 26 194 6.4 16.1 0.00 0.00 0.00 50 1013.0
20260504205524 25 170 3.2 16.1 0.00 0.00 0.00 51 1012.9
20260504205041 25 175 6.4 20.9 0.00 0.00 0.00 50 1012.9
20260504205036 25 165 6.4 20.9 0.00 0.00 0.00 50 1012.9
20260504204557 25 178 9.7 33.8 0.00 0.00 0.00 50 1012.9
20260504204101 25 168 9.7 33.8 0.00 0.00 0.00 51 1013.0
20260504203551 25 182 3.2 19.3 0.00 0.00 0.00 50 1013.0
20260504203136 25 140 8.0 19.3 0.00 0.00 0.00 51 1013.2
20260504202534 25 163 0.0 20.9 0.00 0.00 0.00 52 1013.3
20260504202049 25 178 6.4 20.9 0.00 0.00 0.00 52 1013.3
20260504202042 25 180 6.4 20.9 0.00 0.00 0.00 52 1013.3
20260504201534 25 181 3.2 14.5 0.00 0.00 0.00 53 1013.4
20260504201044 25 161 3.2 17.7 0.00 0.00 0.00 52 1013.4
20260504201040 25 163 3.2 17.7 0.00 0.00 0.00 52 1013.5
20260504200558 25 198 9.7 19.3 0.00 0.00 0.00 49 1013.5
20260504200118 26 229 4.8 19.3 0.00 0.00 0.00 50 1013.7
20260504200111 26 229 3.2 19.3 0.00 0.00 0.00 50 1013.7
20260504195528 25 184 0.0 16.1 0.00 0.00 0.00 50 1013.8
20260504195045 25 213 6.4 20.9 0.00 0.00 0.00 51 1014.0
20260504195041 25 207 8.0 20.9 0.00 0.00 0.00 51 1014.0
20260504194535 25 189 11.3 25.7 0.00 0.00 0.00 51 1014.0
20260504194044 25 189 9.7 25.7 0.00 0.00 0.00 51 1014.2
20260504194040 25 178 8.0 17.7 0.00 0.00 0.00 51 1014.2
20260504193535 25 169 1.6 17.7 0.00 0.00 0.00 52 1014.3
20260504193051 25 172 0.0 12.9 0.00 0.00 0.00 51 1014.3
20260504193045 25 172 1.6 12.9 0.00 0.00 0.00 51 1014.4
20260504192533 25 240 1.6 17.7 0.00 0.00 0.00 51 1014.4
20260504192049 25 172 9.7 22.5 0.00 0.00 0.00 50 1014.5
20260504192045 25 173 8.0 22.5 0.00 0.00 0.00 50 1014.5
20260504191535 25 184 11.3 22.5 0.00 0.00 0.00 51 1014.5
20260504191048 25 205 9.7 22.5 0.00 0.00 0.00 50 1014.4
20260504191044 25 205 9.7 22.5 0.00 0.00 0.00 50 1014.4
20260504190600 25 200 1.6 12.9 0.00 0.00 0.00 50 1014.5
20260504190112 25 216 1.6 19.3 0.00 0.00 0.00 50 1014.6
20260504190107 25 216 3.2 19.3 0.00 0.00 0.00 51 1014.6
20260504185543 25 171 4.8 16.1 0.00 0.00 0.00 52 1014.4
20260504185058 24 138 6.4 22.5 0.00 0.00 0.00 51 1014.5
20260504184531 25 147 3.2 11.3 0.00 0.00 0.00 52 1014.7
20260504184042 24 194 3.2 14.5 0.00 0.00 0.00 54 1014.7
20260504184038 25 194 3.2 14.5 0.00 0.00 0.00 51 1014.7
20260504183550 25 191 3.2 17.7 0.00 0.00 0.00 52 1014.8
20260504183104 25 157 6.4 17.7 0.00 0.00 0.00 52 1014.9
20260504183053 25 157 9.7 17.7 0.00 0.00 0.00 52 1014.9
20260504182625 25 218 1.6 20.9 0.00 0.00 0.00 53 1015.0
20260504182048 25 179 14.5 20.9 0.00 0.00 0.00 51 1015.2
20260504182010 25 181 14.5 20.9 0.00 0.00 0.00 51 1015.1
20260504181527 24 180 3.2 14.5 0.00 0.00 0.00 53 1015.2
20260504181049 24 178 3.2 20.9 0.00 0.00 0.00 51 1015.2
20260504181043 25 178 4.8 20.9 0.00 0.00 0.00 50 1015.3
20260504180602 24 147 8.0 20.9 0.00 0.00 0.00 51 1015.3
20260504180130 24 184 3.2 20.9 0.00 0.00 0.00 52 1015.3
20260504180115 25 207 4.8 20.9 0.00 0.00 0.00 52 1015.3
20260504175624 24 217 1.6 22.5 0.00 0.00 0.00 51 1015.4
20260504175140 24 178 11.3 22.5 0.00 0.00 0.00 49 1015.4
20260504175048 25 165 12.9 22.5 0.00 0.00 0.00 50 1015.4
20260504174515 25 163 4.8 17.7 0.00 0.00 0.00 51 1015.3
20260504174043 25 195 4.8 16.1 0.00 0.00 0.00 51 1015.3
20260504174039 25 181 4.8 16.1 0.00 0.00 0.00 48 1015.4
20260504173529 25 186 1.6 12.9 0.00 0.00 0.00 51 1015.4
20260504173049 24 237 3.2 20.9 0.00 0.00 0.00 51 1015.5
20260504173038 24 237 6.4 20.9 0.00 0.00 0.00 50 1015.5
20260504172528 23 243 4.8 20.9 0.00 0.00 0.00 52 1015.5
20260504172039 23 184 9.7 16.1 0.00 0.00 0.00 52 1015.4
20260504172035 24 190 9.7 14.5 0.00 0.00 0.00 52 1015.5
20260504171525 23 154 0.0 19.3 0.00 0.00 0.00 53 1015.4
20260504171041 23 188 4.8 19.3 0.00 0.00 0.00 52 1015.4
20260504171037 23 188 3.2 19.3 0.00 0.00 0.00 52 1015.4
20260504170558 23 150 3.2 16.1 0.00 0.00 0.00 51 1015.4
20260504170111 23 117 1.6 19.3 0.00 0.00 0.00 51 1015.3
20260504170107 23 117 4.8 19.3 0.00 0.00 0.00 51 1015.4
20260504160127 23 81 8.0 12.9 0.00 0.00 0.00 54 1016.1
20260504151056 22 184 3.2 11.3 0.00 0.00 0.00 59 1016.2
20260504151053 23 182 3.2 9.7 0.00 0.00 0.00 59 1016.2
20260504150546 22 184 0.0 9.7 0.00 0.00 0.00 58 1016.3
20260504150109 22 184 1.6 9.7 0.00 0.00 0.00 58 1016.3
20260504150105 22 184 1.6 9.7 0.00 0.00 0.00 60 1016.3
20260504141047 20 189 4.8 11.3 0.00 0.00 0.00 69 1016.4
20260504141043 21 189 3.2 11.3 0.00 0.00 0.00 69 1016.5
20260504140600 20 263 0.0 9.7 0.00 0.00 0.00 72 1016.4
20260504140123 20 267 0.0 9.7 0.00 0.00 0.00 72 1016.5
20260504140117 20 267 1.6 9.7 0.00 0.00 0.00 72 1016.5
20260504130545 16 155 0.0 1.6 0.00 0.00 0.00 86 1016.3
20260504110502 11 184 0.0 0.0 0.00 0.00 0.00 95 1015.5
20260504100554 12 184 0.0 0.0 0.00 0.00 0.00 94 1015.5
20260504081541 12 184 0.0 0.0 0.00 0.00 0.00 92 1015.7
20260504081039 12 184 0.0 0.0 0.00 0.00 0.00 91 1015.7
20260504080542 13 184 0.0 0.0 0.00 0.00 0.00 91 1015.8
20260504050536 15 184 0.0 0.0 0.00 0.00 0.00 81 1017.1
20260504045534 16 184 0.0 1.6 0.00 0.00 0.00 80 1017.1
20260504045034 16 184 0.0 1.6 0.00 0.00 0.00 79 1017.3
20260504044512 16 184 0.0 0.0 0.00 0.00 0.00 79 1017.3
20260504044005 16 184 0.0 0.0 0.00 0.00 0.00 78 1017.4
20260504043504 16 184 0.0 1.6 0.00 0.00 0.00 78 1017.4
20260504043010 16 184 0.0 9.7 0.00 0.00 0.00 77 1017.4
20260504042504 16 184 0.0 9.7 0.00 0.00 0.00 77 1017.4
20260504042004 16 184 0.0 3.2 0.00 0.00 0.00 77 1017.4
20260504041506 16 184 0.0 1.6 0.00 0.00 0.00 77 1017.4
20260504041001 16 184 0.0 1.6 0.00 0.00 0.00 76 1017.4
20260504040501 16 184 0.0 1.6 0.00 0.00 0.00 76 1017.4
20260504040001 16 184 0.0 1.6 0.00 0.00 0.00 77 1017.5
20260504035502 16 184 0.0 1.6 0.00 0.00 0.00 77 1017.5
20260504035001 16 184 0.0 3.2 0.00 0.00 0.00 76 1017.4
20260504034501 16 184 0.0 3.2 0.00 0.00 0.00 76 1017.5
20260504034100 16 184 0.0 1.6 0.00 0.00 0.00 76 1017.4
20260504033600 17 184 0.0 1.6 0.00 0.00 0.00 75 1017.4
20260504033100 17 184 0.0 3.2 0.00 0.00 0.00 74 1017.5
20260504032600 17 184 0.0 1.6 0.00 0.00 0.00 74 1017.6
20260504032100 17 184 0.0 3.2 0.00 0.00 0.00 73 1017.6
20260504031542 17 184 0.0 3.2 0.00 0.00 0.00 72 1017.6
20260504031040 17 184 0.0 6.4 0.00 0.00 0.00 71 1017.6
20260504030538 17 184 0.0 11.3 0.00 0.00 0.00 71 1017.5
20260504030038 17 184 0.0 11.3 0.00 0.00 0.00 71 1017.5
20260504015630 18 155 0.0 1.6 0.00 0.00 0.00 72 1016.8
20260504015054 20 155 0.0 0.0 0.00 0.00 0.00 70 1016.8
20260504015002 19 155 0.0 0.0 0.00 0.00 0.00 70 1016.8
20260504014531 20 155 0.0 0.0 0.00 0.00 0.00 66 1016.7
20260504014044 20 155 0.0 0.0 0.00 0.00 0.00 65 1016.7
20260504014039 20 155 0.0 0.0 0.00 0.00 0.00 65 1016.7
20260504013530 20 155 0.0 0.0 0.00 0.00 0.00 64 1016.6
20260504013105 20 155 0.0 1.6 0.00 0.00 0.00 63 1016.6
20260504013043 20 155 0.0 1.6 0.00 0.00 0.00 63 1016.6
20260504012623 20 155 0.0 1.6 0.00 0.00 0.00 63 1016.6
20260504012045 20 155 0.0 1.6 0.00 0.00 0.00 66 1016.5
20260504012008 20 155 0.0 1.6 0.00 0.00 0.00 66 1016.5
20260504011534 20 155 0.0 6.4 0.00 0.00 0.00 66 1016.4
20260504011056 20 155 0.0 6.4 0.00 0.00 0.00 63 1016.4
20260504011052 21 155 0.0 6.4 0.00 0.00 0.00 62 1016.4
20260504010550 20 241 0.0 6.4 0.00 0.00 0.00 61 1016.4
20260504010109 21 360 0.0 6.4 0.00 0.00 0.00 62 1016.4
20260504010105 21 360 0.0 6.4 0.00 0.00 0.00 62 1016.4
20260504005526 21 176 0.0 0.0 0.00 0.00 0.00 58 1016.3
20260504005042 22 176 0.0 3.2 0.00 0.00 0.00 55 1016.3
20260504005037 22 176 0.0 3.2 0.00 0.00 0.00 55 1016.3